User: anonymous   Login
Location: Prairie Dale
(45.6972°N, 104.5033°W)
Time: 16:17:46
(UTC+00:00)
Language:

deb Kosmos-2227 - Orbit

View from above orbital plane
View from above orbital plane
View from above satellite
View from above satellite

Ground track
Ground track

The orbit data is extracted from the following two-line orbital elements,

1 22357U 92093AW  22333.51363135  .00003121  00000-0  38615-3 0  9995
2 22357  70.8667 157.3849 0070150 286.5144 103.8395 14.81932749575548
Epoch (UTC): 29 November 2022 12:19:37
Eccentricity: 0.0070150
inclination: 70.8667°
perigee height: 574 km
apogee height: 672 km
right ascension of ascending node: 157.3849°
argument of perigee: 286.5144°
revolutions per day: 14.81932749
mean anomaly at epoch: 103.8395°
orbit number at epoch: 57554

The dashed part of the orbit path shows where the satellite is in the earth's shadow,  

DLR